Miscellaneous Local Product
Issued by NWS Hastings, NE

Home | Current Version | Previous Version | Text Only | Print | Product List | Glossary On
Versions: 1 2 3 4 5 6 7 8 9 10 11 12 13 14 15 16 17 18 19 20 21 22 23 24 25 26 27 28 29 30 31 32 33 34 35 36 37 38 39 40 41 42 43 44 45 46 47 48 49 50
394
AXUS43 KGID 040802
MISGRI

GID CWA HOURLY WEATHER ROUNDUP
NATIONAL WEATHER SERVICE HASTINGS NE
200 AM CST SUN DEC 04 2016

NOTE: "FAIR" INDICATES FEW OR NO CLOUDS BELOW 12,000 FEET WITH NO
SIGNIFICANT WEATHER AND/OR OBSTRUCTIONS TO VISIBILITY.

...SOUTH CENTRAL NEBRASKA...

CITY           SKY/WX    TMP DP  RH WIND       PRES   REMARKS
GRAND ISLAND   CLOUDY    33  32  96 W12       30.00S WCI  24
HASTINGS       CLOUDY    32  31  96 SW7       30.01S WCI  26
KEARNEY        CLOUDY    32  28  86 W8        29.99F WCI  25
ORD            CLOUDY    29  26  89 CALM      29.97S
YORK           CLOUDY    32  32 100 CALM      30.01S
AURORA         CLOUDY    32  32 100 W3        30.00S
LEXINGTON      CLOUDY    29  28  95 W5        29.99S FOG     WCI  24
HOLDREGE       CLOUDY    32  32  99 W10       29.98F FOG     WCI  24
HEBRON         CLOUDY    32  32  99 W5        30.03S FOG     WCI  28

...NEBRASKA PANHANDLE...

CITY           SKY/WX    TMP DP  RH WIND       PRES   REMARKS
CHADRON        MOCLDY    27  17  66 SW9       29.96F WCI  18
ALLIANCE       MOCLDY    29  17  61 W13       29.97F WCI  19
SCOTTSBLUFF    CLEAR     20  12  71 NW8       30.01F WCI  10
SIDNEY         CLEAR     24  13  62 W13       30.01S WCI  12

...WESTERN AND NORTH CENTRAL NEBRASKA...

CITY           SKY/WX    TMP DP  RH WIND       PRES   REMARKS
VALENTINE      CLEAR     21  17  84 SW8       29.93S WCI  11
AINSWORTH      PTCLDY    30  22  73 W8        29.93F WCI  23
ONEILL         CLEAR     31  30  95 SW7       29.94F WCI  25
BROKEN BOW     CLEAR     30  28  92 CALM      29.96F
IMPERIAL       PTCLDY    27  15  61 W12       30.02R WCI  17
NORTH PLATTE   CLEAR     20  18  92 NW7       29.99S WCI  11
MCCOOK         CLEAR     24  19  81 W9        30.01S WCI  14

...EASTERN NEBRASKA...

CITY           SKY/WX    TMP DP  RH WIND       PRES   REMARKS
NORFOLK        CLOUDY    33  30  88 SW9       29.97F WCI  25
SO SIOUX CITY  CLOUDY    35  33  92 S9        30.01F WCI  28
TEKAMAH        CLOUDY    32  32 100 S3        30.02F FOG
COLUMBUS       CLOUDY    34  30  86 W8        30.00F WCI  27
ALBION         CLOUDY    33  32  94 SW6       29.98F WCI  28
OMAHA EPPLEY   LGT RAIN  34  31  88 S6        30.03S FOG     WCI  29
OFFUTT AFB     CLOUDY    36  36 100 SW7       30.02F WCI  30
MILLARD        CLOUDY    34  33  94 CALM      30.03S FOG
LINCOLN        CLOUDY    33  32  96 W8        30.03F WCI  26
NEBRASKA CITY  LGT RAIN  37  37 100 SW9       30.03F WCI  30
BEATRICE       CLOUDY    34  34  99 SW5       30.03S WCI  30
FALLS CITY     RAIN      40  40 100 S3        30.05S FOG

...NORTHERN KANSAS...

CITY           SKY/WX    TMP DP  RH WIND       PRES   REMARKS
GOODLAND       CLEAR     22  13  68 W13       30.02F WCI  10
HILL CITY      CLOUDY    35  34  96 W7        30.03S FOG     WCI  29
NORTON         CLOUDY    30  28  93 SW12      30.00S FOG     WCI  21
PHILLIPSBURG   CLOUDY    34  34 100 SW3       30.04S FOG
SMITH CENTER   FOG       28  28 100 SW3       30.03F VSB 1/4
BELOIT         CLOUDY    32  32 100 CALM      30.04S
HAYS           CLOUDY    32  31  96 W8        30.04S WCI  25
RUSSELL        PTCLDY    32  31  96 W7        30.02R FOG     WCI  26
CONCORDIA      CLOUDY    36  36 100 W6        30.03F WCI  31
SALINA         LGT RAIN  41  40  96 S5        30.04F
TOPEKA         LGT RAIN  40  38  93 CALM      30.05F FOG



USA.gov is the U.S. government's official web portal to all federal, state and local government web resources and services.